Retour au catalogue

STARLINK-31225

ActifCommunicationsVLEO
NORAD 59040·PAYLOAD·🇺🇸 United States

Lancé Feb 25, 2024 depuis Cape Canaveral Space Force Station

Loading…

Prochains Passages (prochaines 24 heures)

TLE

FraisSource: CelesTrak SupGP

Époque: Sep 14, 2026, 22:23 UTC

1 59040C 24038T   26257.93312500  .00031187  00000+0  11296-2 0  2577
2 59040  43.0012  34.5395 0001430 274.4351  75.2922 15.27562750    11

Suivez STARLINK-31225 en temps réel avec AllMySat

Download on the App Store